Cave Run Lake Weather Center

Moon Phase Calendar



Cave Run Lake Water Level
Online Cameras

 


      

Current Conditions in Rowan
2/26/2024 5:24:28 PM

70°F
Feels Like 69
Clear
Humidity
40%
Pressure
29.85"
Wind
8.1 mph (SW)
Dew Point
45°F
UV Index
0/10 (Low)
Visibility
6 mi

Hourly Forecast

Date & Time Mon, Feb 26
5:00 PM
Mon, Feb 26
6:00 PM
Mon, Feb 26
7:00 PM
Mon, Feb 26
8:00 PM
Mon, Feb 26
9:00 PM
Mon, Feb 26
10:00 PM
Mon, Feb 26
11:00 PM
Tue, Feb 27
12:00 AM
Tue, Feb 27
1:00 AM
Tue, Feb 27
2:00 AM
Tue, Feb 27
3:00 AM
Tue, Feb 27
4:00 AM
Tue, Feb 27
5:00 AM
Tue, Feb 27
6:00 AM
Tue, Feb 27
7:00 AM
Tue, Feb 27
8:00 AM
Tue, Feb 27
9:00 AM
Tue, Feb 27
10:00 AM
Tue, Feb 27
11:00 AM
Tue, Feb 27
12:00 PM
Tue, Feb 27
1:00 PM
Tue, Feb 27
2:00 PM
Tue, Feb 27
3:00 PM
Tue, Feb 27
4:00 PM
Tue, Feb 27
5:00 PM
Tue, Feb 27
6:00 PM
Tue, Feb 27
7:00 PM
Tue, Feb 27
8:00 PM
Tue, Feb 27
9:00 PM
Tue, Feb 27
10:00 PM
Tue, Feb 27
11:00 PM
Wed, Feb 28
12:00 AM
Wed, Feb 28
1:00 AM
Wed, Feb 28
2:00 AM
Wed, Feb 28
3:00 AM
Wed, Feb 28
4:00 AM
Wed, Feb 28
5:00 AM
Wed, Feb 28
6:00 AM
Wed, Feb 28
7:00 AM
Wed, Feb 28
8:00 AM
Wed, Feb 28
9:00 AM
Wed, Feb 28
10:00 AM
Wed, Feb 28
11:00 AM
Wed, Feb 28
12:00 PM
Wed, Feb 28
1:00 PM
Wed, Feb 28
2:00 PM
Wed, Feb 28
3:00 PM
Wed, Feb 28
4:00 PM
Condition
Clear

Clear

Clouds

Clouds

Clouds

Clouds

Clouds

Clouds

Clouds

Rain

Rain

Rain

Rain

Rain

Rain

Rain

Rain

Clouds

Clouds

Rain

Rain

Rain

Clouds

Rain

Rain

Clouds

Clouds

Clouds

Clouds

Rain

Rain

Clouds

Clouds

Rain

Rain

Rain

Rain

Rain

Rain

Rain

Rain

Rain

Rain

Rain

Snow

Clouds

Clouds

Clouds
Temperature 70°F68°F64°F61°F58°F56°F57°F57°F57°F56°F55°F55°F55°F55°F55°F55°F57°F58°F59°F60°F60°F60°F60°F61°F61°F61°F62°F63°F63°F64°F64°F65°F65°F65°F65°F65°F64°F64°F64°F62°F61°F49°F44°F39°F37°F39°F41°F40°F
Feels Like 69°F67°F63°F60°F58°F56°F55°F55°F56°F55°F54°F54°F54°F54°F54°F55°F57°F58°F59°F60°F59°F60°F60°F61°F60°F61°F62°F63°F63°F64°F64°F65°F65°F65°F65°F65°F64°F64°F63°F62°F61°F43°F37°F31°F29°F31°F34°F33°F
Cloudiness 5%8%15%62%80%99%99%100%100%100%100%100%100%100%100%100%100%100%100%100%100%100%100%100%100%100%100%100%100%100%100%100%100%100%100%100%100%100%100%100%100%100%100%100%100%100%100%100%
Visibility 6 mi6 mi6 mi6 mi6 mi6 mi6 mi6 mi6 mi6 mi6 mi5 mi6 mi6 mi6 mi6 mi6 mi6 mi6 mi6 mi6 mi6 mi6 mi6 mi6 mi6 mi6 mi6 mi6 mi6 mi6 mi6 mi6 mi6 mi6 mi6 mi6 mi6 mi6 mi3 mi2 mi4 mi4 mi4 mi6 mi6 mi6 mi6 mi
Precipitation 0%18%24%7%0%0%0%0%7%75%95%99%100%100%100%97%100%80%80%100%100%73%73%97%97%74%74%0%23%38%40%19%26%48%67%82%83%83%96%100%100%100%100%100%100%33%26%23%
Humidity 40%48%60%70%77%79%74%70%69%75%80%83%80%82%86%88%87%87%87%85%87%88%87%86%87%85%85%82%81%81%81%80%80%81%80%83%85%82%81%89%91%92%90%95%91%81%70%66%
Dew Point 45°F48°F50°F51°F51°F49°F48°F47°F46°F48°F49°F50°F49°F49°F50°F51°F53°F54°F55°F55°F55°F56°F56°F56°F56°F56°F57°F57°F57°F57°F57°F58°F58°F59°F58°F59°F59°F58°F57°F58°F58°F46°F41°F37°F34°F33°F32°F30°F
Pressure 29.85"29.85"29.85"29.88"29.88"29.88"29.88"29.85"29.83"29.8"29.8"29.77"29.77"29.74"29.74"29.74"29.74"29.74"29.74"29.74"29.71"29.71"29.68"29.65"29.65"29.65"29.62"29.65"29.65"29.62"29.59"29.59"29.56"29.59"29.56"29.56"29.56"29.56"29.56"29.59"29.56"29.68"29.83"29.88"29.97"30"30.06"30.15"
Wind Speed 8.1 mph5.9 mph5.7 mph6.7 mph8.2 mph10.1 mph10.5 mph10.6 mph11.6 mph11.7 mph12.1 mph11 mph10.6 mph11 mph10.6 mph10.5 mph11.8 mph12.2 mph12.6 mph13 mph12.6 mph12 mph12.4 mph12.4 mph13 mph13.4 mph13.6 mph15.2 mph16.4 mph16.2 mph18 mph17.8 mph17.9 mph17.3 mph17 mph16.3 mph16.6 mph16 mph15.4 mph15.2 mph16.5 mph15.5 mph17.1 mph15.6 mph14 mph15.1 mph14.2 mph13.1 mph
Wind
Direction
229°
SW
215°
SW
178°
S
171°
S
182°
S
191°
S
197°
SSW
199°
SSW
200°
SSW
188°
S
197°
SSW
197°
SSW
190°
S
187°
S
201°
SSW
207°
SSW
201°
SSW
206°
SSW
213°
SSW
209°
SSW
202°
SSW
208°
SSW
197°
SSW
201°
SSW
205°
SSW
198°
SSW
199°
SSW
207°
SSW
210°
SSW
211°
SSW
206°
SSW
210°
SSW
211°
SSW
220°
SW
217°
SW
215°
SW
220°
SW
221°
SW
219°
SW
208°
SSW
232°
SW
286°
WNW
287°
WNW
285°
WNW
280°
W
290°
WNW
291°
WNW
292°
WNW

Daily Forecast

Date High Low Precip. Humidity
Today
Feb 26

Rain
70 °F
45 °F
38%
60%
Tuesday
Feb 27

Rain
64 °F
55 °F
100%
85%
Wednesday
Feb 28

Snow
65 °F
31 °F
100%
95%
Thursday
Feb 29

Clouds
47 °F
29 °F
0%
33%
Friday
Mar 1

Rain
45 °F
35 °F
100%
97%
Saturday
Mar 2

Clouds
58 °F
45 °F
53%
73%
Sunday
Mar 3

Clear
70 °F
46 °F
0%
55%
Monday
Mar 4

Clouds
69 °F
52 °F
3%
57%
Tuesday
Mar 5

Rain
56 °F
36 °F
100%
95%
Wednesday
Mar 6

Clear
51 °F
31 °F
1%
46%
Thursday
Mar 7

Clouds
54 °F
38 °F
0%
48%
Friday
Mar 8

Clouds
55 °F
47 °F
0%
59%
Saturday
Mar 9

Rain
57 °F
46 °F
100%
88%
Sunday
Mar 10

Rain
53 °F
44 °F
100%
84%
Monday
Mar 11

Clear
52 °F
37 °F
4%
39%
Tuesday
Mar 12

Rain
49 °F
36 °F
100%
54%

Temperature 8-14 Day Outlook



Precipitation 8-14 Day Outlook




Quick Links
Cave Run Lake News
Cave Run Lake Photos
Cave Run Lake Videos




About Us
Contact Us
Site Map
Search Site
Advertise With Us
   
CaveRun.USLakes.info
THE CAVE RUN LAKE WEBSITE

Copyright 2024, Lakes Online
Privacy    |    Legal